星链-5877 (STARLINK-5877 )

导读

STARLINK-5877是美国太空探索技术公司SpaceX星链星座的组成卫星,于2023年4月27日发射入轨。星链计划旨在构建全球卫星互联网星座,为全球提供宽带互联网接入服务,这颗卫星补充了星链星座的在轨规模,进一步推动星链星座组网建设,增强了星座的覆盖与服务能力,同时也引发了太空轨道资源争夺、天文观测干扰等争议讨论。

Basic Information
目录编号:
56354
目录名称:
STARLINK-5877
国际标识:
2023-058AP
轨道中心:
EARTH
卫星名称:
星链-5877
卫星全名:
星链-5877 (STARLINK-5877 )
卫星状态:
在轨 (已飞行1226 天)
发射日期:
2023-04-27 UTC
国别 :
美国 (US)
星等 :
--
Orbit Information
数据来源 国际轨道数据
星历时间: 2026-09-02T08:04:01+0800
2天前
查看轨道信息
半长轴: 6843.715km
偏心率: 0.0001572
轨道倾角: 97.285°
近地点辐角 87.740°
升交点赤经 242.069°
平近点角 272.402°
近地点: 464.502km
远地点: 466.654km
周期: 93.907分钟
每日圈数: 15.334336
Detailed Information
固有亮度:
5
最大亮度:
2.5
卫星平台:
Starlink v1.5
覆盖范围:
全球
运营商:
太空探索技术公司
运营商所在国:
美国
制造商(研发单位):
太空探索技术公司
制造商所在国:
美国
使用方式:
暂无
Satellite Introduction
星链(Starlink)计划是由太空探索技术公司(SpaceX)提出的一个巨型低轨卫星互联网星座项目,计划在2019年至2024年间在太空搭建由约1.2万颗卫星组成的“星链”网络,其中1584颗将部署在地球上空550千米处的近地轨道,并从2020年开始工作。该卫星仍在工作。
2D Orbit Map
3D Orbit Map
Orbit Altitude Analysis Chart
Orbit Inclination Analysis Chart
Orbit Comprehensive Analysis Chart
View Comprehensive Chart
Conjunction Data List
Event ID Objects TCA Miss Dist (km) Collision Risk Probability Collision Risk Index (CRI) Action
CDM_260904-171005-314305-635421
2026-09-04T
17:10:51+0000
2.360 km
极远距离
1.941473E-6 低风险 0.41
CDM_260903-101004-133605-635428
2026-09-03T
10:10:54+0000
2.302 km
极远距离
1.859766E-6 低风险 0.4
CDM_260904-200005-318005-635422
2026-09-04T
20:00:47+0000
2.565 km
极远距离
1.639903E-6 低风险 0.39
CDM_260905-131105-635406-417121
2026-09-05T
13:11:17+0000
2.437 km
极远距离
1.549834E-6 低风险 0.39
CDM_260905-085405-398605-635421
2026-09-05T
08:54:59+0000
2.983 km
极远距离
1.305493E-6 低风险 0.37
CDM_260905-005605-390005-635421
2026-09-05T
00:56:11+0000
2.992 km
极远距离
7.985164E-7 极低风险 0.33